SCP
0 0 0 0 0 0 0 0 0 0 0 0 0 0 0 0 0 0 0 0 0 0
0 0 0 0 0 0 0 0 0 0 0 0 0 0 0 0 0 0 0 0 0 0
0 0 0 0 0 0 0 0 0 0 0 0 0 0 0 0 0 0 0 0 0 0
0 0 0 0 0 0 0 0 0 0 0 0 0 0 0 0 0 0 0 0 0 0
0 0 0 0 0 0 0 0 0 0 0 0 0 0 0 0 0 0 0 0 0 0
0 0 0 0 0 0 0 0 0 0 0 0 0 0 0 0 0 0 0 0 0 0
0 0 0 0 0 0 0 0 0 0 0 0 0 0 0 0 0 0 0 0 0 0
0 0 0 0 0 0 0 0 0 0 0 0 0 0 0 0 0 0 0 0 0 0
0 0 0 0 0 0 0 0 0 0 0 0 0 0 0 0 0 0 0 0 0 0
0 0 0 0 0 0 0 0 0 0 -0 -0 -0 0 0 0 0 0 0 0 0 0
0 0 -0 -0 -0 -0 -0 -0 -0 -0 -0 -0 -0 -0 -0 0 0 0 0 0 0 0
0 -0 -0 -0 -0 -0 -0 -0 -0 -0 -0 -0 -0 -0 -0 0 0 0 0 0 0 0
0 0 0 -0 0 0 0 -0 0 -0 -0 -0 -0 -0 -0 0 0 0 0 0 0 0
-0 0 -0 -0 0 0 0 0 0 -0 -0 0 0 0 -0 0 0 0 0 0 0 0
Wind_Speed_500mb
75 72 68 55 42 28 19 17 18 19 17 16 15 16 20 23 22 18 15 16 17 17
69 64 58 56 38 31 23 23 17 13 16 19 19 19 19 20 21 18 15 14 12 11
32 45 46 35 39 29 24 14 9 11 16 19 19 21 22 22 22 17 17 14 13 15
10 14 19 30 31 25 18 12 10 15 20 23 21 22 22 22 21 19 18 17 14 15
24 28 32 29 29 24 18 13 14 17 23 23 24 22 19 21 20 18 18 18 15 15
24 27 35 28 19 14 12 13 16 18 20 25 23 22 20 20 21 20 15 13 9 9
23 16 15 16 13 7 4 9 16 18 19 21 22 20 19 17 13 11 9 7 6 5
8 11 20 27 17 10 10 13 16 18 21 21 23 22 18 16 11 6 4 6 7 5
7 14 20 22 32 27 27 28 24 21 18 23 24 19 16 15 12 9 6 3 4 8
15 14 13 12 19 27 28 28 24 19 22 20 20 17 15 16 12 13 9 5 5 7
12 12 18 17 20 23 21 20 17 16 20 14 14 17 14 14 13 14 12 13 11 16
9 8 10 16 18 21 18 14 13 11 11 10 12 14 13 14 17 19 19 19 21 25
15 15 19 20 17 15 15 12 10 11 10 10 13 14 15 19 24 30 29 29 31 35
18 17 18 15 11 7 6 7 7 8 10 13 16 16 22 26 31 35 34 34 35 39
Wind_Direction_500mb
204 207 208 204 189 175 187 209 209 206 204 200 191 188 190 198 199 199 199 193 190 193
194 194 188 174 166 180 182 184 184 186 191 184 176 172 172 183 184 176 171 164 160 164
147 148 159 146 154 158 160 159 168 184 183 178 171 171 171 172 168 180 165 155 151 146
148 129 139 159 143 152 148 157 179 181 178 167 158 162 163 159 156 169 165 153 153 143
127 131 146 156 155 153 155 162 182 182 179 164 162 150 156 151 145 145 142 137 134 131
113 134 136 148 151 144 155 165 168 167 171 165 154 149 144 142 139 135 125 111 108 107
124 122 129 147 145 159 170 177 153 155 161 158 156 157 152 146 140 126 113 98 87 50
116 194 177 160 164 164 209 195 182 181 157 162 165 175 171 170 151 107 103 104 80 28
204 198 193 185 167 180 197 209 207 206 201 180 177 175 185 190 193 186 154 119 32 358
131 131 141 147 160 185 205 213 205 203 210 199 205 213 216 217 197 208 211 226 292 323
151 147 147 142 162 175 172 177 184 204 209 211 209 198 198 206 228 238 246 266 282 304
181 173 179 186 150 138 135 151 161 174 186 187 200 206 202 227 250 257 259 266 276 284
153 130 122 121 125 126 132 141 162 179 184 197 182 202 228 243 257 267 278 283 283 287
189 165 159 168 168 174 195 209 220 228 227 250 252 249 260 264 269 275 282 285 289 291
Wind_Speed_850mb
75 72 68 55 42 28 19 17 18 19 17 16 15 16 20 23 22 18 15 16 17 17
69 64 58 56 38 31 23 23 17 13 16 19 19 19 19 20 21 18 15 14 12 11
32 45 46 35 39 29 24 14 9 11 16 19 19 21 22 22 22 17 17 14 13 15
10 14 19 30 31 25 18 12 10 15 20 23 21 22 22 22 21 19 18 17 14 15
24 28 32 29 29 24 18 13 14 17 23 23 24 22 19 21 20 18 18 18 15 15
24 27 35 28 19 14 12 13 16 18 20 25 23 22 20 20 21 20 15 13 9 9
23 16 15 16 13 7 4 9 16 18 19 21 22 20 19 17 13 11 9 7 6 5
8 11 20 27 17 10 10 13 16 18 21 21 23 22 18 16 11 6 4 6 7 5
7 14 20 22 32 27 27 28 24 21 18 23 24 19 16 15 12 9 6 3 4 8
15 14 13 12 19 27 28 28 24 19 22 20 20 17 15 16 12 13 9 5 5 7
12 12 18 17 20 23 21 20 17 16 20 14 14 17 14 14 13 14 12 13 11 16
9 8 10 16 18 21 18 14 13 11 11 10 12 14 13 14 17 19 19 19 21 25
15 15 19 20 17 15 15 12 10 11 10 10 13 14 15 19 24 30 29 29 31 35
18 17 18 15 11 7 6 7 7 8 10 13 16 16 22 26 31 35 34 34 35 39
Wind_Direction_850mb
204 207 208 204 189 175 187 209 209 206 204 200 191 188 190 198 199 199 199 193 190 193
194 194 188 174 166 180 182 184 184 186 191 184 176 172 172 183 184 176 171 164 160 164
147 148 159 146 154 158 160 159 168 184 183 178 171 171 171 172 168 180 165 155 151 146
148 129 139 159 143 152 148 157 179 181 178 167 158 162 163 159 156 169 165 153 153 143
127 131 146 156 155 153 155 162 182 182 179 164 162 150 156 151 145 145 142 137 134 131
113 134 136 148 151 144 155 165 168 167 171 165 154 149 144 142 139 135 125 111 108 107
124 122 129 147 145 159 170 177 153 155 161 158 156 157 152 146 140 126 113 98 87 50
116 194 177 160 164 164 209 195 182 181 157 162 165 175 171 170 151 107 103 104 80 28
204 198 193 185 167 180 197 209 207 206 201 180 177 175 185 190 193 186 154 119 32 358
131 131 141 147 160 185 205 213 205 203 210 199 205 213 216 217 197 208 211 226 292 323
151 147 147 142 162 175 172 177 184 204 209 211 209 198 198 206 228 238 246 266 282 304
181 173 179 186 150 138 135 151 161 174 186 187 200 206 202 227 250 257 259 266 276 284
153 130 122 121 125 126 132 141 162 179 184 197 182 202 228 243 257 267 278 283 283 287
189 165 159 168 168 174 195 209 220 228 227 250 252 249 260 264 269 275 282 285 289 291